This is the latest recevied weather packets stored in our database for station/object N4MGC. If no packets are shown the sender has not sent any weather packets the latest 10 day(s).
| Time | Temp. | Humidity | Pressure | Rain* | Wind** | Luminosity | Snow |
|---|---|---|---|---|---|---|---|
| 1777499025 | 27.22° C | 75% | 1010.1 hPa | 0 mm | - | 167 W/m² | - |
| 1777498721 | 27.22° C | 77% | 1010.6 hPa | 0 mm | - | 171 W/m² | - |
| 1777498418 | 27.22° C | 75% | 1010.3 hPa | 0 mm | - | 259 W/m² | - |
| 1777498115 | 27.22° C | 75% | 1010.5 hPa | 0 mm | - | 214 W/m² | - |
| 1777497812 | 27.78° C | 73% | 1010.4 hPa | 0 mm | - | 162 W/m² | - |
| 1777497508 | 27.78° C | 75% | 1010.3 hPa | 0 mm | - | 245 W/m² | - |
| 1777497204 | 28.33° C | 71% | 1010.4 hPa | 0 mm | - | 177 W/m² | - |
| 1777496901 | 28.33° C | 71% | 1010.1 hPa | 0 mm | - | 419 W/m² | - |
| 1777496598 | 28.89° C | 70% | 1010.1 hPa | 0 mm | - | 458 W/m² | - |
| 1777496295 | 28.33° C | 73% | 1010.5 hPa | 0 mm | - | 453 W/m² | - |
| 1777495990 | 27.78° C | 76% | 1010.4 hPa | 0 mm | - | 530 W/m² | - |
| 1777495687 | 27.22° C | 78% | 1010.7 hPa | 0 mm | - | 279 W/m² | - |
| 1777495383 | 27.22° C | 76% | 1011 hPa | 0 mm | - | 280 W/m² | - |
| 1777495080 | 27.22° C | 75% | 1011.1 hPa | 0 mm | - | 326 W/m² | - |
| 1777494777 | 27.78° C | 76% | 1011.2 hPa | 0 mm | - | 266 W/m² | - |
| 1777494474 | 27.78° C | 78% | 1011.4 hPa | 0 mm | - | 339 W/m² | - |
| 1777494170 | 27.78° C | 77% | 1011.3 hPa | 0 mm | - | 288 W/m² | - |
| 1777493868 | 27.22° C | 75% | 1011.2 hPa | 0 mm | - | 260 W/m² | - |
| 1777493566 | 27.22° C | 78% | 1011 hPa | 0 mm | - | 235 W/m² | - |
| 1777493263 | 27.78° C | 75% | 1011.1 hPa | 0 mm | - | 425 W/m² | - |
| 1777492959 | 27.78° C | 77% | 1011.1 hPa | 0 mm | - | 331 W/m² | - |
| 1777492657 | 28.33° C | 78% | 1011.2 hPa | 0 mm | - | 306 W/m² | - |
| 1777492351 | 28.33° C | 74% | 1011.4 hPa | 0 mm | - | 276 W/m² | - |
| 1777492048 | 28.33° C | 74% | 1011.7 hPa | 0 mm | - | 615 W/m² | - |
| 1777491745 | 27.78° C | 78% | 1011.3 hPa | 0 mm | - | 543 W/m² | - |
* Rain latest hour (hover to see other rain measurements)
** Current wind speed in m/s (hover to see current wind gust speed)